Date,TemperatureHighF,TemperatureAvgF,TemperatureLowF,DewpointHighF,DewpointAvgF,DewpointLowF,HumidityHigh,HumidityAvg,HumidityLow,PressureMaxIn,PressureMinIn,WindSpeedMaxMPH,WindSpeedAvgMPH,GustSpeedMaxMPH,PrecipitationSumIn
2013-12-1,54.5,39.5,26.4,27.8,19.9,12.0,52,45,32,28.14,27.91,4,1,5,0.00
2013-12-2,48.6,43.9,39.7,31.7,27.8,22.8,61,53,49,27.91,27.70,3,0,4,0.00
2013-12-3,58.6,48.5,42.3,39.7,34.4,29.8,66,58,48,27.82,27.73,3,0,4,0.00
2013-12-4,69.0,53.3,43.0,46.4,39.6,32.1,76,61,40,27.91,27.79,3,0,5,0.00
2013-12-5,67.1,56.6,46.8,54.9,46.1,37.6,83,68,53,27.96,27.88,3,-99,3,0.05
2013-12-6,59.3,54.0,44.0,54.8,49.9,38.2,93,86,79,27.99,27.79,4,-737,5,0.87
2013-12-7,43.9,38.6,34.2,38.1,30.4,25.7,80,72,65,28.26,27.99,4,-275,4,0.00
2013-12-8,39.9,37.4,35.1,34.0,30.5,27.0,86,76,70,28.20,27.96,4,-546,4,0.45
2013-12-9,46.9,43.4,37.9,45.1,40.8,34.0,93,90,86,28.02,27.91,3,-174,4,0.21
2013-12-10,43.2,37.2,29.0,40.8,29.3,16.8,91,73,53,28.17,27.85,6,-302,6,0.25
2013-12-11,46.4,33.3,22.8,21.6,16.5,12.6,63,50,35,28.26,28.14,4,-17,6,0.00
2013-12-12,38.5,31.4,26.3,14.7,11.0,6.3,48,40,31,28.26,28.17,4,2,7,0.00
2013-12-13,47.8,33.6,22.5,16.7,12.0,7.3,48,40,28,28.20,28.08,4,1,5,0.00
2013-12-14,41.0,39.4,37.2,33.5,24.7,14.5,76,57,37,28.08,27.67,3,0,4,0.50
2013-12-15,42.4,35.9,31.6,36.7,25.5,20.0,80,66,59,27.99,27.64,6,-72,6,0.04
2013-12-16,46.8,35.6,30.0,27.5,22.8,19.5,69,59,45,28.05,27.96,6,-16,6,0.00
2013-12-17,53.2,42.0,36.0,33.5,25.8,18.5,81,53,37,28.02,27.82,6,2,8,0.08
2013-12-18,43.6,34.5,28.1,19.3,15.3,12.4,51,44,33,28.14,28.02,6,2,6,0.00
2013-12-19,54.6,38.1,26.2,22.0,17.4,12.5,52,43,27,28.14,28.02,3,1,4,0.00
2013-12-20,61.5,44.8,33.5,31.1,24.0,17.9,54,44,28,28.05,27.96,3,0,4,0.00
2013-12-21,67.6,58.0,46.0,50.4,40.7,28.5,59,52,47,27.96,27.79,3,0,4,0.00
2013-12-22,68.4,58.3,52.3,50.6,49.0,47.8,88,73,49,27.96,27.79,6,-105,13,1.29
2013-12-23,53.8,45.4,34.6,50.9,39.0,22.3,90,79,60,28.14,27.91,3,-153,3,0.37
2013-12-24,34.9,30.8,22.5,22.8,16.0,7.6,64,52,41,28.26,28.11,5,2,6,0.00
2013-12-25,44.0,30.0,20.4,15.2,9.8,4.5,49,41,29,28.26,28.11,4,1,6,0.00
2013-12-26,46.0,33.3,24.4,21.6,15.3,10.7,53,46,36,28.20,28.11,4,1,6,0.00
2013-12-27,50.5,34.4,23.9,18.7,13.9,10.2,52,42,27,28.29,28.20,3,1,4,0.00
2013-12-28,43.7,34.8,25.6,30.9,18.8,11.3,71,50,42,28.26,27.96,2,0,3,0.37
2013-12-29,44.6,42.7,39.3,39.9,37.2,30.7,86,81,71,27.96,27.70,5,-52,5,1.08
2013-12-30,41.0,38.1,34.9,35.7,30.8,26.8,82,75,70,28.02,27.88,3,-80,4,0.00
2013-12-31,42.1,34.7,28.8,27.3,21.2,15.2,73,58,41,28.20,28.02,0,-999,0,0.00